Temp
25 23 24 24 24 24 24 23 23 23 23 23 23 23 22 22 21 21 22 22 21 20 19 19 19 20 19 18 17 17 17 16 16 14 13 12 13 13 12 12 12 12 12
24 25 24 24 24 22 24 24 24 24 24 24 23 23 23 23 22 21 20 21 20 20 20 19 19 19 19 18 17 16 16 16 16 14 13 12 12 13 13 13 12 12 12
23 22 23 23 23 22 23 23 24 25 24 24 24 24 24 23 22 22 22 22 20 20 20 19 19 18 18 18 17 16 16 15 15 15 14 13 12 12 11 12 11 12 11
19 20 20 20 19 19 22 22 24 23 23 23 24 24 24 24 24 23 22 22 22 20 20 20 19 18 18 19 19 18 17 15 15 15 15 13 13 12 13 13 12 12 11
20 20 20 19 21 22 22 23 22 22 21 22 22 22 23 23 23 22 24 23 22 20 20 19 19 18 20 19 19 18 16 16 15 16 15 15 14 13 13 13 13 12 11
20 21 21 21 21 22 22 22 22 22 23 23 23 21 22 22 21 22 22 20 23 20 20 19 18 21 20 19 19 18 16 16 16 16 16 16 14 13 13 13 13 13 13
19 19 20 21 21 21 22 22 22 23 23 23 24 23 21 21 23 22 22 21 22 20 20 19 18 20 20 19 20 18 16 17 15 14 15 14 13 13 13 13 12 13 14
18 19 18 17 18 20 20 21 22 22 22 23 23 23 24 24 24 24 23 21 21 20 19 19 18 20 20 19 20 18 16 17 16 14 14 13 13 13 12 13 12 12 12
16 17 18 19 19 19 19 20 21 21 22 22 22 23 23 24 24 23 24 22 21 19 19 19 18 19 19 19 19 15 15 16 17 15 13 14 13 14 13 13 13 13 14
18 18 19 19 19 20 20 20 20 20 21 20 21 21 22 23 24 24 23 23 21 19 19 19 18 19 18 19 18 15 15 15 15 15 15 14 14 14 13 13 13 14 15
17 18 18 18 18 19 19 19 19 19 18 18 19 20 20 20 22 23 21 22 20 18 19 18 18 17 18 18 18 16 15 14 16 15 13 13 13 13 13 13 13 14 15
16 17 17 17 17 14 16 16 16 15 15 15 15 16 17 17 18 21 20 20 18 18 18 18 18 17 17 17 17 15 16 15 14 15 15 14 14 14 13 13 13 13 13
14 14 14 14 13 12 13 13 13 14 15 15 17 17 17 18 17 16 18 18 17 17 17 17 16 16 16 16 16 16 16 15 15 15 16 16 16 15 14 13 12 13 14
11 11 11 11 11 11 12 13 14 15 16 16 17 17 17 17 17 17 15 16 17 16 16 15 15 15 15 16 15 15 16 14 15 16 16 16 16 15 14 14 14 13 13
10 10 11 11 12 12 12 13 14 14 15 15 16 16 17 17 17 16 15 15 14 14 14 15 15 15 15 15 15 16 14 14 14 15 16 16 16 15 15 15 15 15 14
9 10 11 12 12 12 12 13 13 13 13 13 14 14 13 14 14 15 15 14 14 13 13 14 14 15 15 15 14 14 13 13 13 15 15 16 16 15 15 15 15 15 15
8 8 8 9 11 12 12 12 13 13 13 13 13 13 13 14 14 15 15 14 14 12 13 13 14 15 14 15 14 14 13 13 13 14 14 15 16 16 15 15 15 15 15
8 8 8 8 9 10 11 12 12 13 13 14 15 14 13 13 14 14 14 14 14 14 13 13 13 13 14 15 15 15 14 14 13 13 14 15 16 15 16 16 16 16 16
7 7 8 8 8 8 9 9 10 12 13 13 14 14 13 12 13 13 14 14 14 13 13 12 13 14 14 14 14 14 14 14 13 13 14 15 15 15 15 16 16 16 16
7 7 8 7 9 9 9 9 10 10 11 13 14 14 14 12 11 12 12 13 14 15 13 13 13 13 14 14 14 14 14 14 14 13 14 14 15 14 14 15 15 15 15
8 8 8 8 9 9 9 9 9 9 9 11 12 13 13 13 12 13 14 12 11 12 13 12 13 12 13 14 14 14 14 14 14 13 14 14 15 14 14 15 15 15 15
8 8 8 8 8 8 8 8 8 9 9 10 10 11 12 12 12 13 13 11 12 12 12 13 13 12 13 13 13 14 14 14 14 13 13 14 15 14 14 14 15 15 14
8 8 8 8 9 8 8 8 8 8 9 10 10 11 11 11 12 12 11 10 11 11 11 12 12 12 12 13 13 13 14 14 13 13 13 13 14 14 13 13 13 13 13
8 8 8 8 9 8 8 8 8 9 9 9 9 10 10 10 10 10 11 11 10 11 11 11 11 12 13 13 13 13 12 13 12 13 12 12 12 12 12 13 12 12 12
8 8 8 8 8 8 8 8 8 8 9 9 9 9 10 10 10 10 10 10 10 10 11 11 12 11 12 12 12 12 13 12 12 12 11 12 12 12 12 12 12 12 12
7 7 7 8 7 7 7 7 8 8 8 9 9 9 9 10 10 9 10 10 9 10 10 11 11 11 12 12 12 12 12 12 12 12 11 11 11 12 11 11 11 11 10
Height
1536 1539 1540 1542 1544 1545 1545 1546 1546 1546 1546 1546 1546 1546 1546 1547 1546 1546 1546 1546 1544 1543 1541 1538 1536 1534 1532 1532 1530 1529 1528 1526 1524 1522 1522 1522 1521 1522 1521 1520 1522 1519 1518
1533 1535 1537 1538 1539 1539 1540 1541 1542 1542 1542 1541 1541 1541 1541 1541 1541 1540 1541 1541 1539 1538 1537 1533 1532 1534 1531 1529 1528 1529 1527 1524 1524 1522 1523 1523 1523 1521 1521 1521 1524 1520 1519
1530 1532 1533 1533 1534 1534 1536 1536 1537 1536 1537 1537 1537 1537 1536 1536 1536 1536 1535 1534 1533 1532 1531 1530 1531 1530 1530 1530 1527 1525 1524 1523 1523 1523 1523 1523 1522 1523 1522 1522 1523 1522 1520
1531 1533 1532 1532 1532 1531 1531 1532 1532 1532 1532 1533 1532 1532 1532 1532 1531 1530 1530 1528 1526 1525 1527 1527 1529 1528 1525 1523 1521 1520 1519 1519 1521 1521 1522 1521 1522 1521 1524 1524 1525 1525 1522
1527 1528 1530 1533 1533 1530 1528 1527 1528 1529 1530 1529 1529 1529 1528 1528 1527 1526 1524 1523 1521 1521 1522 1523 1523 1522 1522 1521 1520 1517 1518 1518 1519 1520 1521 1523 1523 1523 1523 1523 1526 1526 1524
1530 1529 1530 1531 1532 1532 1528 1528 1528 1529 1527 1527 1526 1525 1525 1524 1524 1522 1521 1520 1517 1516 1516 1518 1517 1516 1518 1518 1518 1517 1516 1517 1519 1519 1520 1521 1523 1523 1522 1523 1525 1526 1525
1532 1534 1532 1532 1535 1533 1530 1528 1528 1526 1526 1525 1523 1522 1521 1520 1519 1517 1516 1514 1513 1512 1510 1511 1509 1510 1512 1513 1513 1514 1513 1514 1515 1517 1518 1519 1520 1521 1522 1521 1523 1524 1524
1532 1532 1532 1532 1530 1528 1526 1525 1523 1523 1521 1520 1519 1519 1517 1516 1514 1512 1510 1507 1505 1505 1507 1507 1504 1504 1505 1507 1508 1510 1510 1509 1511 1516 1515 1516 1518 1518 1519 1522 1522 1523 1523
1531 1530 1529 1528 1527 1524 1523 1521 1519 1518 1517 1515 1515 1514 1511 1509 1507 1505 1503 1501 1498 1498 1501 1500 1500 1499 1500 1505 1504 1506 1506 1506 1507 1510 1512 1513 1514 1517 1519 1521 1524 1524 1525
1525 1523 1520 1520 1521 1519 1517 1516 1514 1512 1510 1509 1508 1507 1505 1503 1501 1499 1497 1494 1491 1492 1493 1492 1490 1492 1494 1499 1500 1502 1502 1503 1503 1508 1509 1511 1512 1515 1517 1519 1523 1523 1525
1519 1517 1514 1514 1513 1512 1510 1508 1506 1504 1503 1502 1500 1499 1496 1494 1492 1490 1488 1486 1485 1483 1485 1485 1482 1486 1489 1493 1496 1497 1500 1501 1501 1504 1509 1511 1512 1513 1515 1517 1521 1522 1524
1511 1509 1508 1507 1506 1505 1502 1500 1498 1497 1496 1494 1493 1491 1490 1487 1483 1481 1480 1479 1478 1476 1478 1477 1477 1477 1481 1486 1489 1493 1494 1497 1499 1504 1508 1509 1510 1513 1514 1516 1518 1521 1521
1504 1502 1499 1497 1496 1495 1493 1491 1490 1490 1488 1487 1486 1484 1482 1480 1478 1473 1471 1471 1471 1470 1470 1471 1471 1472 1475 1479 1483 1485 1489 1493 1498 1500 1504 1506 1508 1510 1512 1513 1514 1516 1519
1497 1495 1492 1489 1486 1484 1483 1483 1482 1481 1479 1478 1476 1475 1473 1472 1471 1470 1467 1464 1463 1464 1463 1464 1466 1467 1469 1471 1475 1480 1483 1488 1494 1496 1499 1502 1505 1507 1509 1510 1512 1513 1518
1491 1487 1484 1482 1479 1477 1474 1473 1471 1470 1470 1468 1468 1467 1466 1465 1465 1462 1463 1463 1461 1459 1459 1457 1458 1459 1461 1464 1467 1471 1477 1481 1487 1491 1495 1497 1501 1504 1506 1508 1510 1511 1514
1483 1480 1477 1475 1472 1469 1466 1462 1461 1458 1457 1457 1456 1456 1456 1457 1456 1455 1455 1454 1454 1455 1455 1454 1454 1455 1456 1459 1461 1465 1471 1474 1479 1485 1489 1492 1495 1498 1502 1504 1506 1508 1510
1473 1470 1468 1466 1463 1461 1458 1455 1451 1449 1447 1446 1446 1445 1446 1447 1447 1447 1446 1446 1446 1448 1448 1450 1450 1450 1453 1455 1457 1459 1463 1467 1473 1477 1482 1487 1490 1494 1496 1499 1502 1504 1506
1464 1462 1459 1457 1455 1453 1450 1447 1445 1443 1440 1439 1438 1437 1437 1437 1438 1439 1437 1436 1437 1438 1440 1442 1443 1444 1446 1449 1452 1454 1457 1461 1466 1471 1475 1480 1484 1489 1491 1494 1497 1499 1502
1454 1450 1449 1448 1446 1444 1442 1440 1438 1436 1434 1432 1432 1430 1429 1429 1428 1429 1429 1427 1427 1428 1431 1432 1433 1435 1437 1440 1442 1446 1450 1453 1459 1464 1469 1474 1478 1482 1486 1489 1492 1495 1497
1446 1441 1440 1438 1438 1437 1435 1432 1430 1427 1426 1424 1423 1422 1423 1421 1420 1420 1420 1418 1416 1417 1420 1423 1426 1426 1428 1431 1434 1438 1441 1446 1450 1456 1462 1468 1472 1476 1480 1484 1487 1490 1493
1438 1436 1434 1432 1430 1429 1427 1423 1421 1419 1417 1416 1414 1414 1414 1413 1414 1414 1413 1412 1408 1406 1408 1410 1412 1414 1417 1421 1425 1429 1433 1437 1442 1448 1454 1460 1466 1470 1475 1479 1482 1484 1489
1429 1427 1426 1424 1421 1419 1416 1414 1412 1409 1407 1406 1405 1405 1405 1405 1405 1405 1404 1400 1398 1397 1399 1400 1402 1405 1407 1410 1415 1419 1425 1430 1435 1442 1447 1454 1460 1464 1469 1473 1477 1480 1483
1424 1421 1419 1416 1414 1411 1408 1406 1403 1401 1399 1398 1398 1397 1396 1395 1396 1396 1393 1391 1389 1388 1390 1392 1394 1396 1399 1402 1407 1412 1418 1424 1429 1436 1441 1447 1453 1459 1463 1468 1472 1475 1478
1420 1417 1414 1411 1408 1405 1402 1399 1396 1393 1391 1390 1389 1389 1388 1387 1386 1385 1385 1383 1382 1382 1383 1385 1388 1389 1392 1395 1400 1404 1411 1417 1424 1430 1436 1443 1448 1453 1459 1464 1468 1470 1472
1418 1415 1412 1408 1405 1401 1397 1393 1390 1387 1384 1382 1381 1381 1380 1380 1379 1379 1378 1377 1377 1377 1378 1380 1380 1386 1390 1394 1397 1403 1408 1416 1420 1426 1432 1436 1444 1447 1454 1459 1463 1466 1469
1415 1412 1409 1405 1401 1396 1392 1387 1383 1379 1376 1375 1374 1374 1373 1373 1373 1373 1374 1374 1374 1374 1375 1376 1379 1382 1386 1392 1397 1402 1408 1414 1419 1426 1431 1435 1440 1443 1448 1454 1458 1460 1465
Wind_Speed
14 15 16 17 16 17 19 19 20 19 20 21 20 19 19 19 19 18 19 17 17 15 14 13 12 14 12 8 8 3 7 5 5 6 2 1 2 3 4 5 4 5 4
12 14 14 14 15 15 16 16 17 18 17 17 18 20 20 21 20 20 19 16 17 16 15 15 13 11 13 10 5 7 6 6 4 4 6 1 4 3 4 6 6 4 3
12 11 12 14 16 15 11 11 15 18 16 16 17 18 18 18 19 20 20 20 19 19 18 17 13 11 9 7 6 7 7 4 3 3 5 5 5 4 4 5 5 3 4
5 2 4 6 5 5 7 10 14 14 14 14 15 17 17 18 18 18 19 21 21 21 20 18 14 11 10 11 10 8 8 6 6 7 7 7 6 6 5 4 2 1 3
17 14 12 8 4 3 2 2 2 5 7 8 11 13 16 19 20 18 19 21 23 22 20 17 16 15 14 14 10 7 7 7 7 8 8 7 7 6 4 5 4 3 5
17 16 13 12 10 8 7 6 5 3 3 5 6 9 11 12 16 21 22 22 26 25 22 18 18 20 15 13 11 10 8 7 9 9 8 8 8 7 6 5 4 5 4
12 12 11 11 9 10 10 10 10 10 11 12 12 12 13 14 16 17 20 27 30 26 23 20 21 20 16 14 11 11 10 10 12 11 9 9 10 9 8 7 5 3 3
9 11 12 13 14 16 16 17 17 18 18 19 19 18 18 19 20 21 21 26 32 30 24 23 24 22 20 14 11 13 11 12 12 9 8 10 9 11 9 6 6 7 6
8 11 14 19 20 21 21 23 24 24 24 24 24 26 28 29 27 23 25 27 30 29 26 27 27 24 21 15 12 13 14 13 13 17 16 13 14 12 10 7 5 7 5
21 22 23 25 27 29 30 31 31 31 31 29 31 30 30 32 31 31 26 29 31 24 29 29 30 27 24 16 14 15 16 16 15 17 15 13 12 12 11 13 6 7 6
25 28 30 31 32 33 33 34 34 34 33 34 34 36 35 34 33 32 28 29 30 27 27 28 29 29 23 17 16 16 17 17 17 15 13 11 12 12 13 12 8 9 6
30 32 32 32 31 26 31 33 32 30 29 29 28 28 24 26 32 33 29 26 26 26 22 21 25 22 24 18 19 20 20 18 16 15 14 14 14 13 11 11 10 10 8
29 29 30 30 30 29 28 28 28 28 28 29 27 27 26 23 22 27 26 24 25 23 21 23 17 21 22 16 21 23 20 19 17 17 17 16 15 14 14 15 12 12 12
27 28 27 28 28 27 28 29 30 29 29 28 29 28 26 24 22 19 21 22 20 21 20 21 26 23 18 21 25 24 25 20 19 18 17 16 15 17 17 16 15 13 11
28 28 28 27 27 27 29 30 30 30 29 28 28 27 26 25 22 22 21 21 20 22 23 17 15 17 19 31 29 27 25 25 24 18 18 18 18 18 18 18 17 15 14
31 30 29 28 28 28 28 30 30 32 32 33 35 36 32 30 31 29 28 28 28 23 19 18 15 15 19 31 25 23 24 26 23 21 20 20 20 20 20 19 18 17 17
34 34 31 30 29 27 27 27 29 27 28 28 27 29 32 34 30 30 28 28 27 25 23 20 17 18 21 26 25 27 26 28 25 27 24 22 21 22 23 21 20 18 17
30 32 31 30 29 27 25 26 27 28 27 26 24 25 24 26 26 25 26 28 28 28 30 32 30 24 26 26 31 28 23 26 25 27 28 23 23 23 24 23 22 21 19
29 30 30 29 28 30 29 27 25 26 28 29 27 27 29 30 26 25 27 28 28 25 23 27 33 32 29 27 28 31 31 28 24 29 30 24 26 26 24 23 22 22 20
26 27 26 26 25 26 27 27 27 29 28 28 29 29 25 23 23 22 23 25 27 29 24 25 28 32 31 29 30 29 32 32 29 30 34 27 28 28 27 25 24 23 22
23 21 22 22 23 25 26 31 34 30 31 31 29 28 26 24 25 25 23 23 22 24 28 28 30 32 33 35 33 35 35 36 29 30 34 30 28 30 27 25 24 25 24
22 23 23 25 28 30 28 30 30 30 29 30 29 27 30 29 25 25 25 27 28 27 29 28 27 27 31 35 34 36 38 32 28 28 30 33 28 30 26 22 20 20 23
18 18 18 20 22 24 26 26 26 27 24 25 25 25 25 22 22 22 23 22 27 28 26 23 23 26 30 32 33 34 32 28 28 29 31 31 29 29 26 21 20 19 19
15 15 18 20 20 19 20 22 23 24 25 25 24 23 24 22 22 24 23 25 26 24 21 20 20 26 33 35 35 29 28 31 33 34 31 27 25 25 17 16 16 15 20
15 15 14 15 16 19 21 22 23 23 23 26 24 23 23 25 19 24 22 23 19 17 15 19 28 25 25 27 28 29 29 29 31 32 31 29 25 25 23 23 24 23 21
14 13 14 15 16 17 17 18 20 20 22 23 23 26 23 20 21 22 19 14 12 12 11 15 28 21 24 24 28 30 29 27 26 23 22 22 22 22 21 21 21 19 18
Wind_Direction
221 224 232 243 252 259 262 265 268 270 271 272 271 270 272 272 271 270 272 267 271 276 281 281 288 297 304 297 286 247 280 267 264 279 195 140 44 85 73 78 51 76 126
213 211 220 229 235 242 251 262 271 275 274 272 271 269 268 269 273 270 268 260 257 264 268 267 277 280 301 305 295 254 265 256 241 261 160 175 125 110 82 84 81 47 76
209 212 219 232 241 254 260 282 274 270 272 273 275 276 274 273 271 271 268 267 259 259 260 268 269 267 281 278 279 271 277 243 201 195 170 167 143 143 102 100 97 82 61
97 123 206 225 254 279 302 288 277 277 273 272 272 269 271 273 277 274 266 265 262 258 261 268 267 260 259 284 281 269 248 237 206 173 178 181 155 164 155 125 94 82 96
99 98 90 82 97 139 186 242 285 292 286 283 282 279 278 275 274 272 272 266 262 259 260 264 262 250 273 279 282 258 248 196 187 185 182 179 179 172 158 171 180 181 125
74 71 65 57 49 44 46 40 21 351 328 311 304 298 290 287 275 278 271 264 268 261 259 253 245 264 268 271 270 270 243 220 196 192 196 192 187 173 181 153 175 185 160
44 31 30 28 17 11 9 2 352 340 328 320 313 305 300 296 294 290 280 268 267 264 259 247 242 257 259 263 269 258 232 212 200 199 195 188 192 178 181 157 172 196 178
359 347 343 337 336 335 335 332 331 329 326 323 320 310 302 295 289 289 286 275 265 264 257 253 242 253 253 250 256 241 228 208 214 196 193 193 187 181 170 161 171 181 160
319 314 314 317 316 316 315 314 313 311 309 307 303 301 300 300 299 290 281 278 276 266 259 253 249 251 250 242 244 221 211 198 210 197 192 198 197 186 163 159 157 164 169
306 305 304 304 302 302 301 301 300 300 299 297 294 291 288 286 284 287 282 277 275 269 262 257 252 246 248 235 228 216 210 200 196 203 205 200 198 191 179 162 191 194 173
300 299 298 296 295 293 292 290 291 291 291 290 289 289 288 286 280 277 281 271 274 264 260 259 253 249 244 237 229 224 211 197 196 196 192 194 196 199 193 181 188 193 208
299 297 295 293 291 285 282 285 284 281 280 282 284 288 284 286 286 279 279 272 275 275 254 261 248 247 246 230 231 218 212 200 188 189 196 204 195 201 198 199 198 193 217
299 298 296 293 286 281 278 276 277 278 276 274 275 277 280 281 286 292 287 273 274 283 264 250 251 243 245 223 223 219 212 196 198 197 206 205 205 200 193 196 193 199 199
294 294 293 290 287 279 275 272 269 268 268 269 270 273 277 279 281 285 296 293 280 284 288 254 256 245 242 217 211 212 207 199 205 204 207 206 202 203 195 198 191 193 205
290 289 287 286 284 280 273 270 266 263 261 263 265 267 270 272 272 274 276 279 287 291 297 286 255 237 216 200 205 207 201 192 201 200 201 200 199 202 197 201 197 196 200
289 288 285 281 281 280 277 273 268 269 268 264 262 263 264 264 267 276 281 281 285 281 280 258 245 222 219 202 203 198 198 199 203 199 198 200 201 201 201 201 201 202 199
282 284 281 278 276 277 278 276 275 272 272 275 274 273 266 265 268 271 271 272 277 273 259 242 232 228 221 216 214 207 206 208 202 200 194 201 203 204 200 202 200 203 203
280 280 283 278 270 274 276 276 275 275 273 271 270 270 269 268 266 266 264 265 269 270 262 251 243 234 247 232 220 211 207 206 202 204 194 201 203 205 204 202 203 201 203
288 280 275 278 273 275 276 275 274 273 272 268 265 264 275 272 269 264 264 263 265 265 257 256 252 254 235 226 220 213 209 207 202 204 201 199 204 203 203 203 203 202 201
292 283 279 275 274 272 273 272 273 273 270 267 261 261 264 266 270 271 268 262 265 267 253 247 246 242 230 226 219 213 210 208 211 205 205 198 207 200 204 200 203 201 202
280 283 280 274 270 273 271 275 280 275 272 267 264 258 265 258 263 264 265 264 258 261 258 252 259 245 229 227 222 219 212 211 203 203 203 196 204 205 208 209 208 209 202
296 274 271 269 275 282 284 288 285 279 272 264 261 257 257 257 259 260 261 261 270 268 262 257 250 240 233 223 222 214 207 202 201 198 198 197 201 207 208 210 206 205 203
309 302 298 293 293 294 293 289 284 281 273 271 267 262 257 256 254 258 262 264 269 268 263 249 239 238 234 222 219 212 197 191 197 191 190 189 195 203 204 200 202 199 193
319 316 307 299 299 300 296 293 290 286 280 271 265 264 264 261 252 266 276 273 275 261 249 231 230 223 206 202 190 190 191 196 191 188 181 178 179 179 175 179 185 197 205
336 325 320 315 306 301 295 293 288 285 285 277 272 268 265 264 259 271 268 277 259 253 240 222 214 224 220 214 209 206 194 190 189 190 185 192 195 194 203 206 211 209 214
333 331 329 324 325 329 323 312 305 296 285 274 268 267 275 276 259 257 261 254 245 234 215 215 201 204 183 182 185 187 191 190 186 191 194 193 193 194 199 209 201 201 208